Left ArrowRight Arrow

31.31129, -92.44514

Hourly Observations for June 18, 2024

Temp ( °F °C ) Dew Point ( °F °C ) Humidity (%) Winds ( mph kmh ) Pressure ( in mb ) Visibility ( mi km ) Precip ( " mm )
12:08 am 00:08 Partly Cloudy 76 24.4 73 22.8 91 91 E 3 6 29.94 1014 10 16 0.00 0.00
12:53 am 00:53 Clear 76 24.4 73 22.8 91 91 E 5 7 29.93 1014 10 16 0.00 0.00
1:53 am 01:53 Clear 75 23.9 73 22.8 94 94 ESE 6 9 29.91 1013 10 16 0.00 0.00
2:53 am 02:53 Mostly Cloudy 75 23.9 73 22.8 94 94 ESE 3 6 29.91 1013 10 16 0.00 0.00
3:40 am 03:40 Cloudy 75 23.9 73 22.8 94 94 E 5 7 29.90 1012 10 16 0.00 0.00
3:53 am 03:53 Cloudy 75 23.9 73 22.8 94 94 E 5 7 29.91 1013 10 16 0.00 0.00
4:16 am 04:16 Partly Cloudy 75 23.9 73 22.8 94 94 E 6 9 29.90 1012 10 16 0.00 0.00
4:53 am 04:53 Cloudy 75 23.9 73 22.8 94 94 ESE 6 9 29.91 1013 10 16 0.01 0.13
5:53 am 05:53 Cloudy 75 23.9 74 23.3 96 96 E 7 11 29.91 1013 10 16 0.01 0.13
6:42 am 06:42 Cloudy 75 23.9 74 23.3 96 96 Calm 29.92 1013 9 14 0.00 0.00
6:53 am 06:53 Cloudy 75 23.9 74 23.3 96 96 ENE 13 20 29.91 1013 9 14 0.00 0.00
7:27 am 07:27 Cloudy 76 24.4 74 23.3 94 94 Calm 29.91 1013 10 16 0.00 0.00
7:53 am 07:53 Cloudy 77 25 74 23.3 90 90 E 3 6 29.93 1014 10 16 0.00 0.00
8:53 am 08:53 Mostly Cloudy 79 26.1 75 23.9 88 88 E 8 13 29.93 1014 10 16 0.00 0.00
9:00 am 09:00 Mostly Sunny 79 26.1 75 23.9 88 88 E 8 13 29.93 1013 10 16 0.00 0.00
9:53 am 09:53 Sunny 80 26.7 75 23.9 85 85 E 6 9 29.94 1014 10 16 0.00 0.00
10:53 am 10:53 Partly Cloudy 82 27.8 75 23.9 79 79 E 12 19 29.94 1014 10 16 0.00 0.00
11:11 am 11:11 Mostly Cloudy 82 27.8 75 23.9 79 79 E 12 19 29.93 1013 10 16 0.00 0.00
11:53 am 11:53 Cloudy 83 28.3 76 24.4 79 79 E 8 13 29.95 1014 10 16 0.00 0.00
12:53 pm 12:53 Mostly Cloudy 85 29.4 75 23.9 72 72 ESE 12 19 29.95 1014 10 16 0.00 0.00
1:00 pm 13:00 Mostly Cloudy 84 28.9 75 23.9 74 74 E 13 20 29.94 1014 10 16 0.00 0.00
1:42 pm 13:42 Mostly Cloudy 85 29.4 75 23.9 72 72 E 10 17 29.93 1013 10 16 0.00 0.00
1:53 pm 13:53 Mostly Cloudy 86 30 76 24.4 72 72 E 15 24 29.93 1014 10 16 0.00 0.00
2:33 pm 14:33 Cloudy with Light Rain 84 28.9 75 23.9 74 74 E 10 17 29.93 1013 10 16 0.01 0.13
2:53 pm 14:53 Mostly Cloudy 85 29.4 75 23.9 72 72 ESE 15 24 29.93 1014 10 16 0.01 0.13
3:53 pm 15:53 Partly Cloudy 83 28.3 73 22.8 72 72 SE 18 30 29.93 1014 10 16 0.00 0.00
4:53 pm 16:53 Partly Cloudy 82 27.8 73 22.8 74 74 SE 14 22 29.94 1014 10 16 0.00 0.00
5:53 pm 17:53 Cloudy with Light Rain 79 26.1 75 23.9 88 88 ENE 7 11 29.94 1014 7 11 0.01 0.13
6:53 pm 18:53 Mostly Cloudy with Light Rain 77 25 75 23.9 94 94 E 7 11 29.95 1014 7 11 0.02 0.51
7:53 pm 19:53 Partly Cloudy with Light Rain 77 25 75 23.9 94 94 ENE 8 13 29.95 1014 8 13 0.02 0.51
8:29 pm 20:29 Mostly Cloudy with Light Rain 77 25 75 23.9 94 94 ENE 7 11 29.95 1014 8 13 0.01 0.13
8:53 pm 20:53 Mostly Cloudy with Light Rain 77 25 75 23.9 94 94 ENE 6 9 29.95 1014 8 13 0.01 0.13
9:08 pm 21:08 Mostly Cloudy 77 25 75 23.9 94 94 E 6 9 29.94 1014 8 13 0.01 0.13
9:53 pm 21:53 Clear with Light Rain 77 25 75 23.9 94 94 ENE 5 7 29.95 1014 7 11 0.01 0.25
10:53 pm 22:53 Clear 76 24.4 75 23.9 97 97 ENE 6 9 29.95 1014 7 11 0.01 0.13
11:30 pm 23:30 Mostly Clear 76 24.4 75 23.9 97 97 ENE 6 9 29.95 1014 7 11 0.00 0.00
11:53 pm 23:53 Clear 76 24.4 74 23.3 94 94 ENE 6 9 29.95 1014 7 11 0.00 0.00

Powered by Vaisala Xweather